Location: Drocourt
(49.0571°N, 1.7669°E)
Time: 04:17:55
(UTC+00:00)

Transit 4A - Pass Details

Date: 21 April 2024
Orbit: 871 x 971 km, 66.8° (Epoch: 19 May)

Event Time Altitude Azimuth Distance (km) Brightness Sun altitude
Rises 18:53:09 0° 324° (NW) 3,476 12.0 -0.6°
Reaches altitude 10° 18:56:07 10° 337° (NNW) 2,531 10.9 -1.0°
Maximum altitude 19:00:52 25° 32° (NNE) 1,695 9.2 -1.8°
Drops below altitude 10° 19:05:37 10° 87° (E) 2,531 9.6 -2.5°
Enters shadow 19:07:51 - 98° (E) 3,238 10.1 -2.8°
Sets 19:08:34 0° 100° (E) 3,476 - -2.9°
